TimeCST,TemperatureF,Dew PointF,Humidity,Sea Level PressureIn,VisibilityMPH,Wind Direction,Wind SpeedMPH,Gust SpeedMPH,PrecipitationIn,Events,Conditions,WindDirDegrees,DateUTC
12:15 AM,10.4,5.0,79,29.84,10.0,West,25.3,33.4,N/A,,Partly Cloudy,280,2012-11-11 06:15:00
12:35 AM,12.2,5.0,73,29.85,10.0,West,24.2,32.2,N/A,,Mostly Cloudy,280,2012-11-11 06:35:00
12:55 AM,10.4,5.0,79,29.84,10.0,West,27.6,35.7,N/A,,Mostly Cloudy,280,2012-11-11 06:55:00
1:15 AM,10.4,5.0,79,29.85,10.0,West,26.5,34.5,N/A,Snow,Light Snow,280,2012-11-11 07:15:00
1:35 AM,10.4,5.0,79,29.85,10.0,West,23.0,35.7,N/A,,Partly Cloudy,280,2012-11-11 07:35:00
1:55 AM,10.4,5.0,79,29.86,10.0,West,20.7,28.8,N/A,,Partly Cloudy,280,2012-11-11 07:55:00
2:15 AM,10.4,5.0,79,29.86,10.0,West,16.1,21.9,N/A,,Mostly Cloudy,280,2012-11-11 08:15:00
2:55 AM,10.4,5.0,79,29.87,10.0,WNW,16.1,24.2,N/A,,Partly Cloudy,290,2012-11-11 08:55:00
3:15 AM,10.4,5.0,79,29.87,10.0,WNW,16.1,23.0,N/A,,Clear,290,2012-11-11 09:15:00
3:35 AM,10.4,5.0,79,29.87,10.0,West,17.3,24.2,N/A,,Clear,280,2012-11-11 09:35:00
3:55 AM,10.4,5.0,79,29.87,10.0,WNW,18.4,24.2,N/A,,Clear,300,2012-11-11 09:55:00
4:15 AM,10.4,3.2,73,29.87,10.0,WNW,16.1,21.9,N/A,,Clear,290,2012-11-11 10:15:00
4:35 AM,8.6,3.2,79,29.87,10.0,WNW,12.7,18.4,N/A,,Clear,300,2012-11-11 10:35:00
4:55 AM,8.6,3.2,79,29.88,10.0,WNW,15.0,-,N/A,,Clear,300,2012-11-11 10:55:00
5:15 AM,8.6,1.4,73,29.88,10.0,WNW,15.0,-,N/A,,Clear,300,2012-11-11 11:15:00
5:35 AM,6.8,1.4,79,29.88,10.0,NW,12.7,-,N/A,,Clear,310,2012-11-11 11:35:00
5:55 AM,6.8,1.4,79,29.88,10.0,WNW,13.8,-,N/A,,Clear,300,2012-11-11 11:55:00
6:15 AM,6.8,1.4,79,29.88,10.0,WNW,10.4,-,N/A,,Clear,290,2012-11-11 12:15:00
6:35 AM,6.8,1.4,79,29.88,10.0,West,9.2,-,N/A,,Clear,280,2012-11-11 12:35:00
6:55 AM,8.6,3.2,79,29.87,10.0,West,12.7,17.3,N/A,,Clear,260,2012-11-11 12:55:00
7:15 AM,14.0,5.0,67,29.87,10.0,West,19.6,25.3,N/A,,Clear,260,2012-11-11 13:15:00
7:35 AM,14.0,5.0,67,29.88,10.0,West,15.0,24.2,N/A,,Clear,260,2012-11-11 13:35:00
7:55 AM,14.0,5.0,67,29.88,10.0,West,19.6,31.1,N/A,,Clear,270,2012-11-11 13:55:00
8:15 AM,14.0,6.8,73,29.88,10.0,West,16.1,24.2,N/A,,Clear,260,2012-11-11 14:15:00
8:35 AM,15.8,6.8,68,29.88,10.0,West,19.6,26.5,N/A,,Clear,270,2012-11-11 14:35:00
8:55 AM,15.8,6.8,68,29.88,10.0,West,20.7,28.8,N/A,,Clear,260,2012-11-11 14:55:00
9:15 AM,17.6,8.6,68,29.89,10.0,West,23.0,33.4,N/A,,Clear,280,2012-11-11 15:15:00
9:55 AM,17.6,8.6,68,29.90,10.0,West,21.9,32.2,N/A,,Partly Cloudy,280,2012-11-11 15:55:00
10:15 AM,17.6,8.6,68,29.91,10.0,West,24.2,32.2,N/A,Snow,Light Snow,280,2012-11-11 16:15:00
10:35 AM,17.6,8.6,68,29.92,10.0,WNW,24.2,36.8,N/A,Snow,Light Snow,290,2012-11-11 16:35:00
10:55 AM,17.6,8.6,68,29.92,10.0,West,25.3,33.4,N/A,,Partly Cloudy,280,2012-11-11 16:55:00
11:15 AM,17.6,8.6,68,29.92,10.0,West,24.2,35.7,N/A,Snow,Light Snow,280,2012-11-11 17:15:00
11:35 AM,17.6,8.6,68,29.93,10.0,WNW,21.9,34.5,N/A,Snow,Light Snow,290,2012-11-11 17:35:00
11:55 AM,17.6,8.6,68,29.92,10.0,West,24.2,35.7,N/A,Snow,Light Snow,280,2012-11-11 17:55:00
12:15 PM,17.6,8.6,68,29.92,10.0,WNW,23.0,31.1,N/A,Snow,Light Snow,290,2012-11-11 18:15:00
12:35 PM,17.6,8.6,68,29.92,10.0,WNW,27.6,36.8,N/A,Snow,Light Snow,290,2012-11-11 18:35:00
12:55 PM,17.6,10.4,73,29.92,10.0,WNW,26.5,35.7,N/A,Snow,Light Snow,300,2012-11-11 18:55:00
1:15 PM,17.6,8.6,68,29.92,10.0,WNW,27.6,36.8,N/A,Snow,Light Snow,290,2012-11-11 19:15:00
1:35 PM,17.6,8.6,68,29.92,10.0,WNW,21.9,34.5,0.01,Snow,Light Snow,290,2012-11-11 19:35:00
1:55 PM,19.4,10.4,68,29.93,10.0,WNW,20.7,31.1,0.01,Snow,Light Snow,290,2012-11-11 19:55:00
2:15 PM,19.4,8.6,63,29.93,10.0,WNW,28.8,39.1,N/A,Snow,Light Snow,300,2012-11-11 20:15:00
2:35 PM,19.4,10.4,68,29.94,10.0,WNW,24.2,29.9,N/A,,Scattered Clouds,300,2012-11-11 20:35:00
2:55 PM,19.4,10.4,68,29.94,10.0,West,17.3,27.6,N/A,Snow,Light Snow,280,2012-11-11 20:55:00
3:15 PM,19.4,8.6,63,29.95,10.0,WNW,17.3,34.5,N/A,Snow,Light Snow,290,2012-11-11 21:15:00
3:55 PM,19.4,8.6,63,29.96,10.0,West,19.6,29.9,N/A,,Mostly Cloudy,280,2012-11-11 21:55:00
4:15 PM,19.4,8.6,63,29.96,10.0,WNW,20.7,35.7,N/A,,Scattered Clouds,300,2012-11-11 22:15:00
4:35 PM,19.4,8.6,63,29.97,10.0,WNW,17.3,28.8,N/A,,Mostly Cloudy,290,2012-11-11 22:35:00
4:55 PM,19.4,8.6,63,29.97,10.0,WNW,23.0,29.9,N/A,Snow,Light Snow,290,2012-11-11 22:55:00
5:15 PM,19.4,8.6,63,29.97,10.0,West,24.2,34.5,N/A,,Mostly Cloudy,280,2012-11-11 23:15:00
5:35 PM,19.4,8.6,63,29.98,10.0,WNW,20.7,27.6,N/A,,Mostly Cloudy,290,2012-11-11 23:35:00
5:55 PM,17.6,8.6,68,29.98,10.0,WNW,19.6,26.5,N/A,,Mostly Cloudy,290,2012-11-11 23:55:00
6:15 PM,17.6,8.6,68,29.99,10.0,WNW,19.6,28.8,N/A,,Partly Cloudy,290,2012-11-12 00:15:00
6:35 PM,17.6,8.6,68,30.00,10.0,WNW,16.1,23.0,N/A,,Partly Cloudy,290,2012-11-12 00:35:00
6:55 PM,19.4,8.6,63,29.99,10.0,WNW,16.1,28.8,N/A,,Scattered Clouds,290,2012-11-12 00:55:00
7:15 PM,19.4,8.6,63,29.99,10.0,West,21.9,29.9,N/A,,Partly Cloudy,280,2012-11-12 01:15:00
7:35 PM,19.4,8.6,63,30.00,10.0,West,20.7,28.8,N/A,,Clear,270,2012-11-12 01:35:00
7:55 PM,19.4,8.6,63,30.00,10.0,West,20.7,29.9,N/A,,Clear,280,2012-11-12 01:55:00
8:15 PM,19.4,8.6,63,30.00,10.0,West,18.4,29.9,N/A,,Clear,280,2012-11-12 02:15:00
8:35 PM,19.4,8.6,63,30.00,10.0,West,18.4,28.8,N/A,,Clear,280,2012-11-12 02:35:00
8:55 PM,19.4,8.6,63,30.01,10.0,West,17.3,26.5,N/A,,Clear,280,2012-11-12 02:55:00
9:15 PM,19.4,8.6,63,30.02,10.0,West,19.6,31.1,N/A,,Clear,280,2012-11-12 03:15:00
9:55 PM,21.2,8.6,58,30.02,10.0,West,18.4,26.5,N/A,,Clear,280,2012-11-12 03:55:00
10:15 PM,21.2,8.6,58,30.02,10.0,West,18.4,27.6,N/A,,Clear,280,2012-11-12 04:15:00
10:35 PM,21.2,8.6,58,30.02,10.0,West,19.6,26.5,N/A,,Clear,280,2012-11-12 04:35:00
10:55 PM,21.2,8.6,58,30.02,10.0,West,17.3,25.3,N/A,,Clear,280,2012-11-12 04:55:00
11:15 PM,21.2,8.6,58,30.03,10.0,West,18.4,27.6,N/A,,Clear,280,2012-11-12 05:15:00
11:55 PM,21.2,8.6,58,30.03,10.0,West,18.4,27.6,N/A,,Clear,280,2012-11-12 05:55:00